This is the latest recevied weather packets stored in our database for station/object PD2BVG. If no packets are shown the sender has not sent any weather packets the latest 1 day(s).
| Time | Temp. | Humidity | Pressure | Rain* | Wind** | Luminosity | Snow |
|---|---|---|---|---|---|---|---|
| 1778062593 | 13.33° C | 75% | 1010.5 hPa | 0 mm | - | 376 W/m² | - |
| 1778062353 | 13.89° C | 74% | 1010.4 hPa | 0 mm | - | 436 W/m² | - |
| 1778062293 | 13.89° C | 75% | 1010.4 hPa | 0 mm | - | 436 W/m² | - |
| 1778062174 | 13.89° C | 75% | 1010.3 hPa | 0 mm | - | 405 W/m² | - |
| 1778061994 | 13.33° C | 76% | 1010.3 hPa | 0 mm | - | 552 W/m² | - |
| 1778061873 | 13.33° C | 76% | 1010.3 hPa | 0 mm | - | 563 W/m² | - |
| 1778061753 | 13.33° C | 77% | 1010.4 hPa | 0 mm | - | 573 W/m² | - |
| 1778061696 | 13.33° C | 77% | 1010.3 hPa | 0 mm | - | 605 W/m² | - |
| 1778061634 | 13.33° C | 77% | 1010.3 hPa | 0 mm | - | 387 W/m² | - |
| 1778061575 | 13.33° C | 77% | 1010.4 hPa | 0 mm | - | 589 W/m² | - |
| 1778061513 | 13.33° C | 77% | 1010.3 hPa | 0 mm | - | 533 W/m² | - |
| 1778061393 | 12.78° C | 77% | 1010.2 hPa | 0 mm | - | 456 W/m² | - |
| 1778061333 | 12.78° C | 77% | 1010.3 hPa | 0 mm | - | 262 W/m² | - |
| 1778061213 | 13.33° C | 76% | 1010.3 hPa | 0 mm | - | 427 W/m² | - |
| 1778061154 | 13.33° C | 76% | 1010.4 hPa | 0 mm | - | 331 W/m² | - |
| 1778061094 | 13.33° C | 76% | 1010.4 hPa | 0 mm | - | 563 W/m² | - |
| 1778060973 | 13.33° C | 76% | 1010.4 hPa | 0 mm | - | 405 W/m² | - |
| 1778060793 | 13.89° C | 78% | 1010.2 hPa | 0 mm | - | 447 W/m² | - |
| 1778060735 | 13.33° C | 78% | 1010.4 hPa | 0 mm | - | 550 W/m² | - |
| 1778060613 | 13.33° C | 79% | 1010.4 hPa | 0 mm | - | 556 W/m² | - |
| 1778060434 | 13.33° C | 78% | 1010.3 hPa | 0 mm | - | 552 W/m² | - |
| 1778060193 | 12.78° C | 78% | 1010.4 hPa | 0 mm | - | 466 W/m² | - |
| 1778060133 | 12.78° C | 79% | 1010.4 hPa | 0 mm | - | 478 W/m² | - |
| 1778059834 | 12.78° C | 79% | 1010.4 hPa | 0 mm | - | 642 W/m² | - |
| 1778059713 | 12.78° C | 78% | 1010.4 hPa | 0 mm | - | 399 W/m² | - |
* Rain latest hour (hover to see other rain measurements)
** Current wind speed in m/s (hover to see current wind gust speed)